Simultaneous Nadir Overpasses (SNOs) Predictions

Prediction of SNOs over PacNW region [( 10.00, 139.50) to ( 22.70, 165.60)] between AQUA and NPP Satellites:

Table of predicted SNOs over PacNW region for the next 30.0 days since TLE Epoch: 5/1/2020
Index Date (AQUA) Time (AQUA) AQUA Lat,Lon Date (NPP) Time (NPP) NPP Lat,Lon Distance(km) Time Diff (sec)
1 05/08/2020 15:59:30 22.61, 147.48 05/08/2020 16:01:28 23.27, 144.59 305.57 118
2 05/16/2020 15:09:58 22.64, 159.86 05/16/2020 15:10:42 23.24, 157.27 273.68 44
3 05/19/2020 03:31:48 22.69, 147.54 05/19/2020 03:28:18 27.36, 144.58 599.42 210
4 05/24/2020 15:59:19 22.61, 147.52 05/24/2020 16:01:25 23.24, 144.60 307.21 126




NCC Satellite Simultaneous Nadir Overpasses (SNOs) Prediction Service
